When you browse on this site, cookies collect data to enhance your experience and personalize the content and advertising you see.
Visit our Privacy Policy to learn more. By continuing to use the site, you agree to this use of cookies and data.
  • In United Kingdom
  • List of Countries
  • For 7 days
  • Water Temperature
  • Satellite Maps
  • Weather Map
  • Weather Widgets
  • user-avatar
    Login

    Hourly Weather Trinidad de Zaachila

    Today, 25 March, Monday

    Time Temperature Precipitation Wind Pressure Humidity
    00:00 +18°C° 0 mm 1 mps 637 mmHg 80%
    01:00 +16°C° 0 mm 1 mps 637 mmHg 81%
    02:00 +16°C° 0 mm 1 mps 636 mmHg 82%
    03:00 +15°C° 0 mm 1 mps 636 mmHg 83%
    04:00 +15°C° 0 mm 1 mps 636 mmHg 83%
    05:00 +14°C° 0 mm 1 mps 636 mmHg 83%
    06:00 +14°C° 0 mm 1 mps 636 mmHg 83%
    07:00 +16°C° 0 mm 1 mps 637 mmHg 70%
    08:00 +20°C° 0 mm 1 mps 638 mmHg 57%
    09:00 +22°C° 0 mm 1 mps 639 mmHg 44%
    10:00 +25°C° 0 mm 1 mps 640 mmHg 36%
    11:00 +27°C° 0 mm 1 mps 640 mmHg 27%
    12:00 +29°C° 0 mm 2 mps 641 mmHg 18%
    13:00 +30°C° 0 mm 2 mps 640 mmHg 17%
    14:00 +30°C° 0 mm 3 mps 640 mmHg 16%
    15:00 +31°C° 0 mm 3 mps 639 mmHg 15%
    16:00 +29°C° 0 mm 3 mps 639 mmHg 18%
    17:00 +28°C° 0 mm 4 mps 638 mmHg 22%
    18:00 +27°C° 0 mm 4 mps 638 mmHg 25%
    19:00 +24°C° 0 mm 3 mps 638 mmHg 33%
    20:00 +20°C° 0 mm 3 mps 638 mmHg 41%
    21:00 +18°C° 0 mm 2 mps 637 mmHg 49%
    22:00 +17°C° 0 mm 2 mps 637 mmHg 53%
    23:00 +16°C° 0 mm 2 mps 637 mmHg 58%

    Tomorrow, 26 March, Tuesday

    Time Temperature Precipitation Wind Pressure Humidity
    00:00 +15°C° 0 mm 2 mps 637 mmHg 62%
    01:00 +14°C° 0 mm 2 mps 637 mmHg 65%
    02:00 +14°C° 0 mm 2 mps 636 mmHg 67%
    03:00 +13°C° 0 mm 1 mps 636 mmHg 70%
    04:00 +13°C° 0 mm 2 mps 635 mmHg 70%
    05:00 +13°C° 0 mm 2 mps 635 mmHg 70%
    06:00 +12°C° 0 mm 2 mps 635 mmHg 69%
    07:00 +15°C° 0 mm 2 mps 637 mmHg 57%
    08:00 +17°C° 0 mm 2 mps 638 mmHg 45%
    09:00 +20°C° 0 mm 2 mps 639 mmHg 33%
    10:00 +23°C° 0 mm 2 mps 640 mmHg 28%
    11:00 +25°C° 0 mm 3 mps 640 mmHg 22%
    12:00 +28°C° 0 mm 3 mps 641 mmHg 16%
    13:00 +28°C° 0 mm 4 mps 640 mmHg 16%
    14:00 +29°C° 0 mm 4 mps 640 mmHg 15%
    15:00 +29°C° 0 mm 5 mps 639 mmHg 14%
    16:00 +28°C° 0 mm 4 mps 639 mmHg 17%
    17:00 +26°C° 0 mm 4 mps 638 mmHg 19%
    18:00 +23°C° 0 mm 4 mps 638 mmHg 22%
    19:00 +21°C° 0 mm 4 mps 638 mmHg 30%
    20:00 +19°C° 0 mm 3 mps 638 mmHg 37%
    21:00 +16°C° 0 mm 2 mps 638 mmHg 45%
    22:00 +15°C° 0 mm 2 mps 638 mmHg 54%
    23:00 +15°C° 0 mm 2 mps 638 mmHg 63%

    Day after tomorrow, 27 March, Wednesday

    Time Temperature Precipitation Wind Pressure Humidity
    00:00 +14°C° 0 mm 2 mps 638 mmHg 72%
    01:00 +14°C° 0 mm 2 mps 637 mmHg 74%
    02:00 +13°C° 0 mm 2 mps 637 mmHg 75%
    03:00 +13°C° 0 mm 2 mps 636 mmHg 77%
    04:00 +12°C° 0 mm 2 mps 636 mmHg 76%
    05:00 +12°C° 0 mm 2 mps 636 mmHg 75%
    06:00 +10°C° 0 mm 2 mps 636 mmHg 73%
    07:00 +14°C° 0 mm 2 mps 637 mmHg 62%
    08:00 +16°C° 0 mm 2 mps 639 mmHg 51%
    09:00 +19°C° 0 mm 2 mps 640 mmHg 40%
    10:00 +21°C° 0 mm 2 mps 640 mmHg 33%
    11:00 +24°C° 0 mm 3 mps 641 mmHg 26%
    12:00 +27°C° 0 mm 3 mps 641 mmHg 19%
    13:00 +27°C° 0 mm 3 mps 640 mmHg 19%
    14:00 +28°C° 0 mm 4 mps 640 mmHg 19%
    15:00 +29°C° 0 mm 4 mps 639 mmHg 19%
    16:00 +27°C° 0 mm 4 mps 639 mmHg 22%
    17:00 +26°C° 0 mm 4 mps 639 mmHg 26%
    18:00 +25°C° 0 mm 4 mps 638 mmHg 30%
    19:00 +21°C° 0 mm 3 mps 638 mmHg 40%
    20:00 +19°C° 0 mm 3 mps 638 mmHg 50%
    21:00 +16°C° 0 mm 2 mps 638 mmHg 59%
    22:00 +15°C° 0 mm 2 mps 638 mmHg 66%
    23:00 +14°C° 0 mm 2 mps 638 mmHg 72%

    28 March, Thursday

    Time Temperature Precipitation Wind Pressure Humidity
    00:00 +13°C° 0 mm 2 mps 638 mmHg 79%
    01:00 +13°C° 0 mm 2 mps 637 mmHg 78%
    02:00 +13°C° 0 mm 2 mps 637 mmHg 77%
    03:00 +12°C° 0 mm 2 mps 636 mmHg 77%
    04:00 +12°C° 0 mm 2 mps 636 mmHg 75%
    05:00 +12°C° 0 mm 2 mps 636 mmHg 73%
    06:00 +10°C° 0 mm 2 mps 636 mmHg 71%
    07:00 +14°C° 0 mm 1 mps 637 mmHg 59%
    08:00 +18°C° 0 mm 1 mps 639 mmHg 47%
    09:00 +21°C° 0 mm 1 mps 640 mmHg 35%
    10:00 +24°C° 0 mm 1 mps 640 mmHg 29%
    11:00 +26°C° 0 mm 1 mps 641 mmHg 23%
    12:00 +29°C° 0 mm 1 mps 641 mmHg 17%
    13:00 +29°C° 0 mm 1 mps 640 mmHg 16%
    14:00 +30°C° 0 mm 1 mps 640 mmHg 15%
    15:00 +31°C° 0 mm 2 mps 639 mmHg 14%
    16:00 +30°C° 0 mm 2 mps 639 mmHg 18%
    17:00 +28°C° 0 mm 2 mps 639 mmHg 21%
    18:00 +27°C° 0 mm 3 mps 638 mmHg 24%
    19:00 +25°C° 0 mm 2 mps 638 mmHg 34%
    20:00 +21°C° 0 mm 2 mps 638 mmHg 43%
    21:00 +19°C° 0 mm 1 mps 638 mmHg 53%
    22:00 +19°C° 0 mm 1 mps 638 mmHg 58%
    23:00 +18°C° 0 mm 1 mps 637 mmHg 63%

    29 March, Friday

    Time Temperature Precipitation Wind Pressure Humidity
    00:00 +16°C° 0 mm 1 mps 637 mmHg 68%
    01:00 +16°C° 0 mm 1 mps 637 mmHg 69%
    02:00 +15°C° 0 mm 1 mps 636 mmHg 70%
    03:00 +15°C° 0 mm 1 mps 635 mmHg 71%
    04:00 +15°C° 0 mm 1 mps 635 mmHg 71%
    05:00 +14°C° 0 mm 1 mps 635 mmHg 71%
    06:00 +14°C° 0 mm 1 mps 635 mmHg 72%
    07:00 +18°C° 0 mm 1 mps 637 mmHg 60%
    08:00 +21°C° 0 mm 1 mps 638 mmHg 49%
    09:00 +24°C° 0 mm 1 mps 639 mmHg 38%
    10:00 +26°C° 0 mm 1 mps 639 mmHg 32%
    11:00 +29°C° 0 mm 1 mps 639 mmHg 26%
    12:00 +31°C° 0 mm 1 mps 640 mmHg 20%
    13:00 +31°C° 0 mm 1 mps 639 mmHg 19%
    14:00 +32°C° 0 mm 1 mps 638 mmHg 18%
    15:00 +33°C° 0 mm 1 mps 638 mmHg 16%
    16:00 +32°C° 0 mm 2 mps 638 mmHg 19%
    17:00 +30°C° 0 mm 2 mps 637 mmHg 22%
    18:00 +29°C° 0 mm 3 mps 637 mmHg 26%
    19:00 +27°C° 0 mm 2 mps 637 mmHg 34%
    20:00 +24°C° 0 mm 2 mps 637 mmHg 42%
    21:00 +22°C° 0 mm 1 mps 637 mmHg 50%
    22:00 +21°C° 0 mm 1 mps 636 mmHg 55%
    23:00 +20°C° 0 mm 1 mps 636 mmHg 61%

    30 March, Saturday

    Time Temperature Precipitation Wind Pressure Humidity
    00:00 +19°C° 0 mm 1 mps 636 mmHg 66%
    01:00 +19°C° 0 mm 1 mps 635 mmHg 69%
    02:00 +18°C° 0 mm 1 mps 634 mmHg 72%
    03:00 +18°C° 0 mm 1 mps 634 mmHg 75%
    04:00 +18°C° 0 mm 1 mps 634 mmHg 78%
    05:00 +16°C° 0 mm 1 mps 634 mmHg 80%
    06:00 +16°C° 0 mm 1 mps 634 mmHg 82%
    07:00 +20°C° 0 mm 1 mps 635 mmHg 71%
    08:00 +22°C° 0 mm 1 mps 636 mmHg 59%
    09:00 +25°C° 0 mm 1 mps 637 mmHg 48%
    10:00 +27°C° 0 mm 1 mps 637 mmHg 41%
    11:00 +29°C° 0 mm 1 mps 638 mmHg 34%
    12:00 +31°C° 0 mm 2 mps 638 mmHg 27%
    13:00 +32°C° 0 mm 2 mps 637 mmHg 25%
    14:00 +33°C° 0 mm 3 mps 637 mmHg 23%
    15:00 +33°C° 0 mm 3 mps 636 mmHg 22%
    16:00 +31°C° 0 mm 3 mps 636 mmHg 24%
    17:00 +30°C° 0 mm 3 mps 636 mmHg 27%
    18:00 +29°C° 0 mm 3 mps 635 mmHg 29%
    19:00 +26°C° 0 mm 2 mps 635 mmHg 35%
    20:00 +24°C° 0 mm 2 mps 635 mmHg 41%
    21:00 +22°C° 0 mm 1 mps 635 mmHg 48%
    22:00 +21°C° 0 mm 1 mps 635 mmHg 50%
    23:00 +20°C° 0 mm 1 mps 635 mmHg 53%
    Show more